STARLINK-35949, 66630

Orbit data source: Space-Track

STARLINK-35949, 66630 is a payload satellite owned by SpaceX/Seattle (US) in LEO that was launched on Sun, 23 Nov 2025 UTC via an FALCON 9 launch vehicle from the Air Force Western Test Range (AFWTR). Payload-class satellites include a variety of spacecraft equipped with specific instruments for various scientific and technological missions. These include communications satellites like Starlink; space stations such as the ISS; scientific satellites like the Hubble; Earth observation satellites from companies like Planet Labs, Umbra, and HawkEye 360; GPS; miniature CubeSats for education and research; and military/defense satellites.

Loading next visibility...
Identifier
66630, 2025-271P
Orbit
LEO
Country
Flag of USUS
Related business
Manufacturer
SpaceX/Seattle
Mission
Operational Commercial Communications
Bus & Motor
STARLINK V2MO, Unknown motor
Mass
575 kg wet, ~530 kg dry
Launch date (UTC)
2025-11-23 (2 months ago)
Launch vehicle
FALCON 9
Launch site
Air Force Western Test Range (AFWTR)
Object type
Payload
Rocket body
Debris
Shape & HBR
Box + 2 Pan, 17.7 m
Radar Cross Section
36.964 m²

Expand to show TLE details & history
Last TLE update: 11 hours ago

TLE from 11 hours ago
0 STARLINK-35949
1 66630U 25271P   26036.97897854  .00043583  00000-0  14763-2 0  9998
2 66630  53.1561 287.0816 0001284  70.9317 289.1822 15.30172105 12716
Epoch: 2026-02-05T23:29Z
TLE epoch observation values (Epoch: 2026-02-05T23:29:43.745Z)
Latitude
-0.0001°
Longitude
158.52581°
Altitude
475.909 km
Speed
7.629 km/s
True Right ascension
19h 08m 19s
True Declination
0° 00' 00"
Sunlit
Object was in daylight at epoch
Visualization orbit readout
Latitude
Unknown
Longitude
Unknown
Altitude
Unknown
Speed
Unknown
Apparent Right ascension
Unknown
Apparent Declination
Unknown
Sunlit
N/A
Visualization observer readout
Local Sidereal Time
12:06:51
Azimuth
Unknown
Elevation
Unknown
Doppler factor
Unknown
Orbital elements
Apogee altitude
476.435 km
Perigee altitude
474.675 km
Semi-major axis
6,853.692 km
Eccentricity
0.00013
Inclination
53.1561°
RAAN
287.0816°
Arg. of periapsis
70.9317°
True anomaly
289.1683°
Mean anomaly
289.1822°
Eccentric anomaly
289.17525°
Mean motion
3.82522 °/min
Orbital period
94.11 mins
BSTAR
0.0014763
Loading maneuver chart data...
Computing Atmospheric mass density...
Loading historical data...
Loading historical data...
Loading historical data...
Loading historical data...
Loading historical data...
Loading historical data...
Loading historical data...

Documentation

Showing up to 5 results
|